Flag for Germany Weather past 2 weeks in Bocholt, North Rhine-Westphalia, Germany

Now
64 °F

Partly sunny.


Feels Like: 64 °F
Forecast: 50 / 62 °F
Wind: 23 mph from Southwest

Location: Niederrhein

Current Time: Jun 2, 2015 at 3:42:49 PM

Latest Report: Jun 2, 2015 at 2:50 PM


Visibility: N/A

Pressure: 29.83 "Hg

Humidity: 68%

Dew point: 54 °F

Location of BocholtLocation

Historic Weather in Bocholt — Graph

°F

Bocholt temperature yesterday

Maximum temperature yesterday: 64 °F (at 5:20 PM)
Minimum temperature yesterday: 48 °F (at 4:50 AM)
Average temperature yesterday: 57 °F

Past Weeks' High & Low Weather Summary

 TemperatureHumidityPressure
High70 °F (May 22, 3:50 PM)100% (May 21, 4:50 AM)30.33 "Hg (May 21, 4:50 AM)
Low39 °F (May 21, 4:50 AM)35% (May 22, 3:50 PM)29.65 "Hg (May 18, 5:50 PM)
Average56 °F66%30.01 "Hg
* Reported May 18 1:20 PM — Jun 2 1:50 PM, Bocholt, Weather by CustomWeather, © 2015

Note: Actual official high and low records may vary slightly from our data, if they occured in-between our weather recording intervals... More about our weather records

Advertising

Bocholt weather history for previous 24 hours

 ConditionsComfort  
Time TempWeatherWind HumidityBarometerVisibility
1:50 PM
Tue, Jun 2
63 °FPartly sunny.21 mph73%29.83 "HgN/A
1:20 PM61 °FPartly sunny.16 mph77%29.83 "HgN/A
12:50 PM59 °FPartly sunny.16 mph77%29.83 "HgN/A
12:20 PM59 °FPartly sunny.16 mph72%29.83 "HgN/A
11:50 AM57 °FPartly sunny.14 mph77%29.83 "HgN/A
11:20 AM55 °FPartly sunny.12 mph82%29.83 "HgN/A
10:50 AM55 °FDrizzle. Partly sunny.15 mph82%29.83 "HgN/A
10:20 AM57 °FPartly sunny.14 mph72%29.83 "HgN/A
9:50 AM57 °FSprinkles. Partly sunny.18 mph72%29.83 "HgN/A
9:20 AM57 °FPartly sunny.18 mph72%29.83 "HgN/A
8:50 AM57 °FScattered clouds.15 mph67%29.80 "HgN/A
8:20 AM55 °FPartly sunny.17 mph72%29.80 "HgN/A
7:50 AM55 °FSunny.17 mph67%29.80 "Hg10 mi
7:20 AM55 °FPassing clouds.16 mph67%29.80 "HgN/A
6:50 AM55 °FPassing clouds.16 mph72%29.80 "HgN/A
5:20 AM54 °FPassing clouds.10 mph72%29.83 "HgN/A
4:50 AM55 °FClear.12 mph67%29.83 "Hg10 mi
4:20 AM55 °FPassing clouds.10 mph63%29.83 "HgN/A
11:50 PM
Mon, Jun 1
54 °FClear.5 mph67%29.92 "Hg10 mi
11:20 PM55 °FSunny.5 mph63%29.92 "Hg10 mi
10:50 PM55 °FPassing clouds.5 mph63%29.95 "HgN/A
10:20 PM57 °FSunny.5 mph59%29.95 "Hg10 mi
9:50 PM57 °FSunny.3 mph55%29.95 "Hg10 mi
9:20 PM57 °FSunny.3 mph55%29.95 "Hg10 mi
8:50 PM59 °FPassing clouds.5 mph51%29.95 "HgN/A
8:20 PM61 °FPassing clouds.6 mph52%29.98 "HgN/A
7:50 PM61 °FSunny.6 mph48%29.98 "Hg10 mi
7:20 PM63 °FPassing clouds.6 mph45%29.98 "HgN/A
6:50 PM63 °FPassing clouds.8 mph42%29.98 "HgN/A
6:20 PM63 °FPassing clouds.9 mph42%29.98 "HgN/A
5:50 PM63 °FPassing clouds.9 mph39%30.01 "HgN/A
5:20 PM64 °FPassing clouds.12 mph40%30.01 "HgN/A
4:50 PM61 °FPassing clouds.8 mph45%30.01 "HgN/A
4:20 PM63 °FSunny.12 mph42%30.04 "Hg10 mi
3:50 PM63 °FPassing clouds.7 mph42%30.04 "HgN/A
3:20 PM61 °FPassing clouds.12 mph45%30.04 "HgN/A
Weather by CustomWeather, © 2015

See weather overviewHow to use our weather pages